Weather History for KYKM - June, 2014

Change the Weather History Date:

Thursday, June 5, 2014

  Actual Average Record
Temperature  
Mean Temperature 71 °F 62 °F  
Max Temperature 82 °F 77 °F 98 °F (1949)
Min Temperature 59 °F 47 °F 33 °F (1976)
Degree Days  
Heating Degree Days 0 5  
Month to date heating degree days 0 25  
Since 1 June heating degree days 0 25  
Since 1 July heating degree days 5570 5969  
Cooling Degree Days 6 1  
Month to date cooling degree days 32 5  
Year to date cooling degree days 55 25  
Since 1 June cooling degree days 32 5  
Growing Degree Days 20 (Base 50)    
Moisture  
Dew Point 35 °F    
Average Humidity 30    
Maximum Humidity 43    
Minimum Humidity 17    
Precipitation  
Precipitation 0.00 in 0.02 in 0.81 in (1957)
Month to date precipitation 0.00 0.12  
Year to date precipitation 2.92 3.79  
Snow  
Snow 0.00 in 0.00 in 0.00 in (2002)
Month to date snowfall 0.0 0.0  
Year to date snowfall 19.9 8.6  
Since 1 July snowfall 19.9 21.6  
Snow Depth 0.00 in    
Sea Level Pressure  
Sea Level Pressure 30.00 in    
Wind  
Wind Speed 8 mph (North)    
Max Wind Speed 24 mph    
Max Gust Speed 31 mph    
Visibility 10 miles    
Events      
T = Trace of Precipitation, MM = Missing Value Source: NWS Daily Summary

Daily Weather History Graph

Daily Weather History Graph

Search for Another Location

Airport or City:

Trip Planner

Search our weather history database for the weather conditions in past years. The results will help you decide how hot, cold, wet, or windy it might be!

Date:

Astronomy

Jun. 05, 2014 Rise Set
Actual Time 5:10 AM PDT 8:51 PM PDT
Civil Twilight 4:32 AM PDT 9:29 PM PDT
Nautical Twilight 3:40 AM PDT 10:21 PM PDT
Astronomical Twilight 2:29 AM PDT 11:33 PM PDT
Moon 12:52 PM PDT 1:02 AM PDT
Length of Visible Light 16h 57m
Length of Day
15h 40m
Waxing Crescent, 49% of the Moon is Illuminated
Jun 5
Waxing Crescent
Jun 5
First Quarter
Jun 12
Full
Jun 19
Last Quarter
Jun 27
New

Hourly Weather History & Observations

Time (PDT) Temp. Dew Point Humidity Pressure Visibility Wind Dir Wind Speed Gust Speed Precip Events Conditions
12:53 AM 63.0 °F 39.9 °F 43% 29.96 in 10.0 mi NW 12.7 mph - N/A   Clear
1:53 AM 63.0 °F 39.0 °F 41% 29.97 in 10.0 mi NNW 18.4 mph 28.8 mph N/A   Clear
2:53 AM 62.1 °F 36.0 °F 38% 29.97 in 10.0 mi NW 23.0 mph 31.1 mph N/A   Clear
3:53 AM 61.0 °F 33.1 °F 35% 29.99 in 10.0 mi NNW 13.8 mph - N/A   Clear
4:53 AM 61.0 °F 30.9 °F 32% 30.02 in 10.0 mi NNW 13.8 mph - N/A   Clear
5:53 AM 60.1 °F 35.1 °F 39% 30.04 in 10.0 mi NNW 11.5 mph - N/A   Clear
6:53 AM 61.0 °F 37.0 °F 41% 30.06 in 10.0 mi North 6.9 mph - N/A   Clear
7:53 AM 64.0 °F 36.0 °F 35% 30.08 in 10.0 mi North 5.8 mph - N/A   Clear
8:53 AM 66.0 °F 35.1 °F 32% 30.07 in 10.0 mi Calm Calm - N/A   Clear
9:53 AM 69.8 °F 33.8 °F 27% - 10.0 mi North - - N/A   Clear
10:53 AM 72.0 °F 30.0 °F 21% 30.06 in 10.0 mi East 5.8 mph - N/A   Clear
11:53 AM 73.0 °F 32.0 °F 22% 30.04 in 10.0 mi ESE 5.8 mph - N/A   Clear
12:53 PM 75.0 °F 34.0 °F 22% 30.03 in 10.0 mi Variable 3.5 mph - N/A   Clear
1:53 PM 75.9 °F 35.1 °F 23% 30.01 in 10.0 mi South 6.9 mph - N/A   Clear
2:53 PM 77.0 °F 34.0 °F 21% 29.99 in 10.0 mi Variable 3.5 mph - N/A   Clear
3:53 PM 79.0 °F 32.0 °F 18% 29.96 in 10.0 mi ENE 5.8 mph - N/A   Clear
4:53 PM 80.1 °F 32.0 °F 17% 29.94 in 10.0 mi Calm Calm - N/A   Clear
5:53 PM 80.1 °F 33.1 °F 18% 29.93 in 10.0 mi SE 6.9 mph - N/A   Clear
6:53 PM 80.1 °F 33.1 °F 18% 29.92 in 10.0 mi SE 5.8 mph - N/A   Clear
7:53 PM 75.9 °F 37.9 °F 25% 29.93 in 10.0 mi South 4.6 mph - N/A   Clear
8:53 PM 71.1 °F 42.1 °F 35% 29.95 in 10.0 mi NNW 5.8 mph - N/A   Clear
9:53 PM 66.9 °F 42.1 °F 40% 29.98 in 10.0 mi Variable 4.6 mph - N/A   Clear
10:53 PM 66.9 °F 41.0 °F 39% 29.99 in 10.0 mi North 8.1 mph - N/A   Clear
11:53 PM 64.0 °F 41.0 °F 43% 29.99 in 10.0 mi WNW 9.2 mph - N/A   Clear